Location: Bruch
(44.2051°N, 0.4120°E)
Time: 01:14:56
(UTC+00:00)

Lacrosse 4 Rocket - Visible Passes

Search period start: 14 April 2021 00:00
Search period end: 24 April 2021 00:00
Orbit: 537 x 620 km, 68.0° (Epoch: 13 April)

Date Brightness Start Highest point End Pass type
(mag) Time Alt. Az. Time Alt. Az. Time Alt. Az.
14 Apr 3.0 19:12:41 10° NW 19:16:40 36° WSW 19:20:32 10° S visible
15 Apr 3.8 19:17:33 10° NW 19:21:01 24° WSW 19:24:23 10° SSW visible
16 Apr 4.2 19:22:47 10° WNW 19:25:19 15° WSW 19:27:47 10° SW visible
